Wind_Speed
8 9 10 11 11 12 13 13 13 13 13 14 15 16 17 17 17 18 19 20 21 22 22 22 22 22 23 23 23 23 23 22 21 20 18 17 17 16 15 13 11 9 7 6
7 8 9 10 11 11 12 12 13 13 13 13 14 15 16 17 17 18 18 19 20 21 22 22 22 23 23 23 23 23 23 23 23 22 21 20 19 18 17 15 14 12 9 7
7 7 8 9 10 10 11 11 12 12 13 13 13 15 15 16 17 17 18 18 19 20 21 22 22 23 23 23 23 23 23 23 23 23 22 21 21 20 18 17 16 14 11 8
6 6 7 8 9 10 10 11 11 12 12 13 13 14 15 16 16 17 17 17 18 19 20 21 21 22 23 23 23 23 24 24 24 23 23 22 22 21 21 19 18 16 14 11
5 5 6 7 8 8 9 10 11 11 11 12 13 14 14 15 16 16 17 17 17 18 19 19 20 21 22 23 23 23 24 24 25 24 24 23 23 22 22 21 20 18 16 14
3 4 5 6 7 8 8 9 10 11 11 12 12 13 13 14 15 15 16 16 16 17 18 18 19 19 20 21 22 23 24 24 25 25 24 24 23 23 22 22 22 20 18 17
3 4 4 5 6 6 7 8 9 10 10 11 12 12 12 13 13 14 14 15 15 16 16 17 18 18 19 19 20 21 22 24 25 25 24 24 24 24 23 23 23 22 20 19
6 6 6 6 6 6 7 8 9 9 10 10 11 12 12 12 12 13 13 14 14 14 15 15 16 16 17 18 18 19 20 22 23 23 24 24 24 24 24 24 23 23 22 21
9 9 9 9 9 8 8 9 9 10 10 10 11 11 12 12 12 12 13 13 13 14 14 14 15 15 15 16 16 17 18 19 20 21 22 23 24 24 24 24 24 23 23 22
12 11 11 11 11 12 11 11 11 11 11 11 12 12 12 12 13 13 13 13 13 13 13 14 14 14 14 14 14 15 16 17 17 18 19 21 22 23 23 23 23 23 23 22
14 14 13 14 14 14 14 14 14 14 13 13 13 13 14 14 14 13 13 13 14 14 13 13 13 13 13 13 13 13 14 14 15 15 16 17 19 20 21 21 21 21 22 22
16 16 16 16 16 16 16 16 16 16 16 16 15 15 15 15 15 15 14 14 14 14 14 14 13 13 13 13 12 12 12 12 13 13 14 14 15 16 17 19 19 19 19 20
19 19 19 20 20 20 19 19 19 19 19 18 18 18 18 18 17 17 17 16 15 15 15 14 14 13 13 13 12 12 12 11 11 11 11 12 12 13 13 14 15 16 17 17
23 23 23 23 24 24 23 23 23 23 22 22 21 21 21 20 20 20 19 19 18 17 17 16 15 15 14 13 13 12 12 12 11 11 10 10 10 10 10 11 11 12 13 13
28 28 28 28 28 28 28 27 27 27 26 26 25 25 24 23 23 23 23 22 21 21 20 19 18 18 17 16 15 14 13 13 12 12 11 10 10 9 9 8 8 9 9 10
33 33 33 33 33 33 33 32 32 31 31 30 30 29 28 27 26 26 26 26 25 24 24 23 22 22 20 19 18 17 16 15 14 14 13 12 11 10 9 9 8 7 7 7
37 38 39 39 39 39 38 38 37 36 36 35 35 34 33 32 31 30 30 30 29 27 27 26 26 26 25 23 22 21 19 18 17 16 15 14 13 12 11 10 9 9 8 7
41 42 43 43 44 44 44 43 43 42 42 41 40 39 38 37 36 35 35 34 33 31 30 31 31 30 29 28 26 25 24 22 21 20 19 18 16 15 14 13 12 11 10 9
45 45 46 47 47 47 48 48 48 48 47 47 46 45 44 43 42 41 40 39 37 35 35 36 35 33 32 32 31 29 28 27 25 24 22 21 20 19 17 16 15 14 13 12
45 46 47 48 49 50 50 51 51 51 51 51 51 50 49 48 47 46 45 44 42 40 40 40 39 37 36 35 35 34 32 31 29 28 27 25 24 22 21 20 19 18 17 16
42 43 44 46 48 49 50 51 52 53 53 54 54 54 53 53 52 52 51 49 47 47 46 45 44 42 41 40 39 38 36 35 34 32 31 30 28 26 25 24 23 21 20 19
41 42 43 44 45 47 49 51 52 53 54 55 55 56 56 56 56 56 55 54 52 52 52 50 49 47 46 45 44 42 40 39 38 36 35 34 32 31 29 28 26 25 24 23
41 42 44 45 46 47 49 50 52 53 55 56 57 57 58 58 58 58 58 58 58 57 56 55 54 53 52 51 49 47 45 43 42 40 39 38 37 35 34 32 30 29 28 27
44 46 47 48 49 50 51 53 54 55 56 58 59 59 60 60 61 62 62 61 60 60 60 59 58 58 57 56 54 52 50 48 46 45 43 42 41 40 38 36 35 33 32 31
49 50 52 53 54 55 56 57 57 58 59 59 60 60 61 61 61 62 63 63 63 63 62 62 62 62 61 60 59 57 55 53 51 50 48 47 45 44 42 41 39 37 36 35
53 55 56 58 59 60 61 62 62 62 62 62 62 62 62 62 63 63 63 63 64 65 65 65 65 65 65 64 64 62 60 59 57 55 53 51 50 48 47 45 44 42 40 39
57 58 60 61 62 63 64 65 65 65 65 65 64 64 64 63 63 63 63 63 64 65 65 66 67 67 68 68 67 67 65 64 62 60 58 56 55 53 51 49 48 46 45 43
Wind_Direction
62 59 57 56 54 52 51 49 48 44 40 37 36 34 32 30 29 29 28 29 30 30 30 29 29 29 30 31 31 31 31 30 29 27 25 23 21 18 16 14 9 359 347 322
60 55 53 54 54 54 54 51 46 41 38 34 33 30 30 29 28 27 28 28 28 29 29 28 28 29 30 31 32 32 31 31 30 29 28 26 24 21 19 17 13 6 358 343
53 47 46 49 48 48 47 44 39 35 33 31 29 28 29 27 25 25 26 27 28 28 28 28 28 30 31 31 30 30 30 29 28 28 27 26 24 23 21 19 17 13 10 5
51 45 40 42 42 42 40 38 34 31 29 28 28 29 29 27 25 24 24 26 27 27 28 28 29 30 31 31 29 29 28 28 28 27 27 26 26 26 26 25 23 22 20 17
43 38 37 35 35 35 34 34 32 29 27 25 25 27 27 26 25 23 23 24 26 28 28 28 28 29 29 30 30 30 29 28 28 28 28 29 29 30 30 29 28 28 28 27
21 18 18 23 24 24 25 25 21 21 20 20 20 20 21 20 21 21 21 22 24 26 26 26 26 26 27 28 28 29 29 29 29 30 31 32 32 33 33 32 33 33 34 35
314 327 341 349 357 2 4 9 10 9 9 8 9 10 11 14 14 15 16 18 20 22 23 23 23 23 24 24 25 26 27 28 29 31 32 33 34 35 34 35 36 37 39 39
288 296 304 313 321 329 337 341 345 349 353 354 355 357 358 359 1 3 6 9 12 14 16 17 18 19 20 21 22 24 26 27 29 31 32 34 34 36 37 38 39 41 42 42
277 284 291 296 302 308 314 318 321 325 331 336 339 342 345 346 347 350 354 358 1 4 6 8 11 12 14 16 18 20 23 25 28 30 32 34 35 37 38 40 42 43 44 46
273 277 284 290 294 297 300 304 308 311 314 317 321 325 329 333 336 338 342 346 349 352 355 358 1 3 6 8 10 14 18 22 25 27 29 32 34 36 38 40 42 44 45 47
276 280 283 287 291 294 295 297 299 301 304 307 308 309 313 317 321 324 327 331 335 338 341 345 348 352 355 358 1 4 9 14 18 21 24 27 31 34 36 39 41 44 46 48
276 280 281 283 284 287 289 291 292 294 296 298 299 301 302 304 307 310 313 316 319 323 326 329 333 337 341 345 348 352 356 0 5 10 15 19 23 28 33 37 39 42 45 47
276 277 277 278 280 281 283 285 287 289 290 291 292 293 294 295 296 298 300 303 306 308 310 314 317 321 326 329 332 335 339 344 349 355 1 6 12 18 24 31 35 38 41 44
274 275 276 277 279 280 281 282 283 285 286 287 287 288 289 289 290 291 291 292 293 295 297 300 303 305 309 314 317 320 322 326 331 336 341 347 354 1 8 15 23 29 33 37
275 276 276 277 278 278 279 280 281 282 282 283 283 284 285 285 286 286 286 285 285 286 288 289 291 292 294 297 300 303 306 310 313 318 322 326 331 337 343 350 359 9 18 25
273 274 275 276 276 277 278 278 279 279 279 280 280 281 281 282 282 281 281 281 281 281 282 283 283 283 284 286 288 290 292 294 298 301 305 308 311 315 320 324 328 336 346 357
268 270 272 274 275 276 276 276 277 277 277 277 277 277 278 278 278 278 277 278 279 279 278 277 276 277 278 279 280 281 282 283 285 287 290 293 296 298 301 304 307 310 315 320
266 267 269 270 272 273 274 275 275 275 275 275 275 275 275 274 274 274 274 275 275 276 275 274 273 273 274 274 274 274 275 276 277 278 279 281 283 285 287 289 291 293 295 296
266 266 267 268 269 270 271 272 273 274 274 274 274 274 274 273 272 272 272 272 273 273 272 272 272 272 272 271 271 271 271 271 271 272 272 273 274 275 277 278 279 281 282 284
265 266 266 267 269 270 270 271 272 273 273 273 273 273 272 272 271 271 270 270 270 269 269 269 269 269 269 269 269 269 268 268 267 267 267 268 268 269 269 271 272 272 273 274
268 268 268 269 270 271 272 273 273 274 274 274 274 273 272 271 270 269 268 268 267 266 266 266 267 267 267 266 266 266 266 266 265 264 264 264 265 265 265 265 266 267 268 269
273 274 274 273 273 273 274 274 275 275 275 275 275 275 274 273 271 269 268 267 264 263 264 264 264 264 264 264 264 264 264 264 263 262 262 262 262 262 262 262 263 263 264 264
280 280 280 279 279 278 278 278 278 278 277 277 276 276 275 274 273 271 268 267 265 263 262 261 261 261 261 261 261 261 261 261 261 261 260 260 260 260 260 260 260 261 261 261
283 283 283 283 283 282 282 281 281 280 280 279 278 277 275 274 272 271 270 267 265 263 261 259 258 257 257 257 258 258 258 258 258 258 258 258 258 258 258 258 258 258 259 259
284 285 285 285 285 286 285 285 285 284 283 282 280 279 277 275 273 271 269 268 266 263 261 259 257 256 255 255 255 255 255 255 255 255 255 256 256 256 256 256 256 257 257 257
285 286 286 287 287 287 287 287 287 286 285 284 282 281 279 278 275 273 270 267 265 263 261 259 256 255 254 253 252 252 252 253 253 253 254 254 254 254 255 255 255 255 256 256
287 288 288 289 289 289 289 289 288 288 286 285 284 282 280 278 276 274 271 268 265 262 260 258 257 254 253 251 251 250 250 250 250 251 251 252 252 253 253 254 254 254 255 255
Height
5893 5891 5889 5887 5885 5882 5880 5878 5876 5874 5871 5868 5865 5862 5858 5855 5851 5848 5844 5840 5836 5832 5827 5823 5819 5814 5810 5805 5800 5796 5791 5787 5783 5779 5774 5770 5767 5763 5759 5756 5753 5750 5748 5747
5894 5892 5890 5888 5886 5883 5881 5879 5877 5875 5873 5870 5867 5863 5860 5857 5853 5850 5846 5842 5838 5834 5830 5826 5822 5817 5813 5808 5804 5799 5795 5790 5786 5781 5777 5772 5768 5764 5760 5756 5753 5750 5747 5745
5894 5893 5891 5890 5887 5885 5883 5881 5878 5876 5874 5871 5868 5865 5862 5859 5855 5852 5849 5845 5841 5837 5833 5829 5825 5820 5816 5811 5807 5802 5798 5793 5789 5784 5779 5775 5771 5766 5761 5757 5753 5750 5747 5744
5895 5895 5893 5893 5888 5886 5884 5882 5879 5877 5875 5872 5869 5866 5863 5860 5857 5854 5850 5847 5843 5839 5835 5832 5828 5823 5819 5815 5810 5806 5801 5796 5792 5787 5782 5777 5773 5768 5764 5759 5755 5751 5748 5745
5895 5894 5893 5892 5889 5887 5885 5883 5881 5878 5876 5873 5870 5867 5865 5862 5858 5855 5852 5849 5845 5841 5838 5834 5830 5826 5822 5818 5814 5809 5804 5800 5795 5790 5785 5781 5776 5771 5766 5762 5758 5753 5750 5746
5895 5893 5892 5892 5890 5887 5886 5884 5881 5879 5877 5874 5871 5869 5867 5863 5860 5857 5854 5850 5847 5843 5840 5836 5833 5829 5825 5821 5817 5812 5808 5803 5798 5794 5789 5784 5779 5775 5770 5766 5761 5757 5753 5749
5893 5892 5891 5891 5889 5888 5887 5885 5882 5879 5877 5874 5872 5870 5867 5864 5861 5858 5855 5852 5848 5845 5842 5838 5835 5831 5827 5824 5820 5816 5811 5807 5802 5797 5793 5788 5783 5779 5774 5769 5765 5760 5756 5752
5891 5890 5892 5889 5887 5887 5885 5883 5881 5879 5877 5875 5872 5870 5867 5864 5861 5859 5856 5852 5849 5846 5843 5840 5836 5833 5830 5826 5822 5818 5814 5810 5806 5801 5797 5792 5788 5783 5778 5774 5770 5765 5761 5757
5889 5890 5887 5886 5885 5884 5883 5881 5879 5878 5876 5874 5872 5869 5867 5864 5862 5859 5856 5853 5850 5847 5844 5841 5838 5834 5831 5828 5824 5821 5817 5813 5809 5805 5801 5796 5792 5787 5783 5779 5774 5770 5766 5762
5885 5885 5884 5883 5882 5881 5879 5878 5877 5875 5874 5872 5870 5868 5866 5863 5861 5858 5856 5853 5850 5847 5844 5841 5838 5835 5832 5829 5826 5823 5819 5816 5812 5808 5805 5800 5796 5792 5788 5783 5779 5775 5771 5767
5881 5881 5880 5879 5878 5877 5876 5874 5873 5872 5870 5869 5867 5866 5864 5861 5859 5857 5854 5852 5849 5847 5844 5841 5839 5836 5833 5830 5827 5824 5821 5818 5814 5811 5808 5804 5800 5796 5792 5788 5784 5780 5777 5773
5877 5876 5876 5875 5873 5872 5871 5870 5869 5868 5866 5865 5864 5862 5860 5858 5856 5854 5852 5850 5848 5845 5843 5840 5838 5835 5833 5830 5827 5824 5822 5819 5816 5813 5810 5806 5803 5799 5796 5792 5789 5785 5782 5778
5871 5871 5870 5869 5868 5867 5866 5865 5864 5863 5861 5860 5859 5857 5856 5854 5852 5851 5849 5847 5845 5843 5841 5839 5836 5834 5832 5829 5827 5824 5822 5819 5816 5814 5811 5808 5805 5802 5799 5796 5792 5789 5786 5783
5863 5863 5863 5862 5861 5861 5860 5859 5858 5857 5856 5854 5853 5852 5851 5849 5848 5846 5844 5843 5841 5839 5837 5835 5833 5831 5829 5827 5825 5823 5821 5818 5816 5813 5811 5808 5806 5803 5800 5798 5795 5792 5789 5786
5855 5855 5855 5854 5853 5852 5852 5851 5851 5850 5849 5848 5846 5845 5844 5843 5842 5840 5839 5837 5836 5834 5833 5831 5829 5827 5826 5824 5822 5820 5818 5816 5814 5812 5810 5807 5805 5803 5801 5799 5796 5794 5791 5789
5846 5845 5845 5844 5844 5843 5843 5842 5842 5841 5840 5840 5839 5838 5837 5836 5835 5834 5832 5831 5830 5829 5827 5826 5824 5822 5821 5819 5818 5816 5814 5813 5811 5809 5807 5806 5804 5802 5800 5798 5796 5794 5792 5790
5836 5835 5834 5833 5833 5832 5832 5832 5831 5831 5830 5830 5829 5829 5828 5827 5826 5825 5824 5823 5822 5822 5820 5819 5817 5815 5815 5813 5812 5811 5809 5808 5807 5805 5804 5802 5801 5799 5797 5796 5794 5793 5791 5789
5825 5824 5823 5822 5821 5820 5819 5819 5819 5818 5818 5818 5818 5817 5817 5817 5816 5815 5814 5814 5813 5813 5812 5810 5809 5808 5807 5806 5805 5804 5803 5802 5801 5800 5799 5798 5796 5795 5794 5793 5791 5790 5789 5787
5811 5810 5809 5809 5808 5807 5807 5806 5805 5805 5804 5804 5805 5805 5804 5804 5804 5804 5803 5803 5803 5803 5802 5800 5800 5799 5799 5798 5797 5796 5795 5795 5794 5793 5792 5791 5791 5790 5789 5788 5787 5786 5785 5784
5796 5796 5795 5794 5793 5793 5792 5791 5790 5790 5789 5789 5789 5789 5790 5790 5790 5790 5790 5791 5791 5791 5790 5789 5789 5789 5789 5788 5787 5787 5786 5786 5785 5785 5784 5784 5783 5783 5782 5782 5781 5780 5780 5779
5781 5781 5781 5780 5779 5777 5776 5775 5775 5774 5773 5772 5772 5772 5773 5773 5774 5774 5774 5776 5777 5776 5776 5776 5776 5777 5777 5776 5776 5776 5776 5776 5776 5776 5775 5775 5775 5775 5775 5774 5774 5774 5773 5773
5767 5766 5765 5765 5764 5762 5761 5759 5758 5757 5756 5755 5755 5754 5754 5755 5755 5756 5756 5758 5759 5759 5760 5760 5761 5762 5762 5762 5763 5764 5764 5765 5765 5765 5765 5765 5765 5765 5766 5766 5766 5766 5765 5765
5752 5751 5750 5749 5748 5747 5745 5743 5742 5740 5739 5737 5736 5736 5735 5735 5735 5736 5737 5738 5738 5740 5741 5743 5744 5745 5746 5746 5748 5749 5750 5751 5752 5753 5753 5754 5754 5755 5755 5756 5756 5756 5757 5757
5737 5736 5734 5733 5731 5730 5728 5726 5724 5722 5720 5718 5717 5716 5715 5715 5714 5713 5714 5715 5716 5718 5720 5722 5724 5725 5726 5728 5730 5732 5734 5736 5737 5738 5739 5740 5741 5742 5743 5744 5745 5746 5746 5747
5721 5720 5718 5716 5714 5712 5710 5707 5705 5703 5700 5698 5696 5694 5693 5692 5692 5692 5691 5692 5693 5694 5697 5699 5702 5704 5705 5708 5711 5713 5716 5718 5720 5722 5723 5725 5727 5728 5730 5731 5733 5734 5735 5736
5705 5703 5701 5698 5696 5693 5690 5687 5684 5682 5679 5677 5674 5672 5670 5669 5668 5668 5668 5668 5668 5670 5672 5674 5677 5680 5683 5686 5689 5692 5695 5698 5701 5703 5706 5708 5710 5713 5715 5716 5718 5720 5722 5723
5688 5685 5682 5679 5676 5672 5669 5666 5662 5659 5656 5654 5651 5648 5646 5644 5643 5642 5642 5643 5643 5644 5646 5648 5651 5654 5658 5662 5665 5669 5673 5676 5680 5683 5687 5690 5693 5695 5698 5700 5702 5705 5707 5709